Retour au catalogue

FREGAT DEB

ActifUNKNOWN
NORAD 45831·DEBRIS·🇷🇺 Russia

Lancé Jul 18, 2011 depuis Baikonur Cosmodrome

Loading…

Prochains Passages (prochaines 24 heures)

TLE

FraisSource: Space-Track

Époque: Sep 14, 2026, 01:37 UTC

1 45831U 11037BR  26257.06773635  .00000484  00000-0  29146-3 0  9993
2 45831  51.4429 161.0708 1629432 240.6123 102.2413 11.56314012264184

Suivez FREGAT DEB en temps réel avec AllMySat

Download on the App Store